Flag for Greece

Past Weather in 37°19'22.8"N, 26°32'45.4"E, Greece — Yesterday and Last 2 Weeks

Currently: 77 °F. Sunny. (Weather station: Samos Airport, Greece). See more current weather

Past Weather in 37°19'22.8"N, 26°32'45.4"E — Graph

°F

37°19'22.8"N, 26°32'45.4"E Temperature Yesterday

Maximum temperature yesterday: 81 °F (at 2:50 pm)
Minimum temperature yesterday: 66 °F (at 5:20 am)
Average temperature yesterday: 75 °F

High & Low Weather Summary for the Past Weeks

 TemperatureHumidityPressure
High90 °F (May 21, 2:50 pm)83% (May 18, 11:50 pm)30.12 "Hg (May 18, 11:50 pm)
Low59 °F (May 12, 5:50 am)29% (May 21, 2:50 pm)29.59 "Hg (May 10, 7:20 pm)
Average72 °F56%29.90 "Hg
* Reported May 10 8:20 am — May 25 8:50 am, 37°19'22.8"N, 26°32'45.4"E. Weather by CustomWeather, © 2024

Note: Actual official high and low records may vary slightly from our data, if they occured in-between our weather recording intervals... More about our weather records

37°19'22.8"N, 26°32'45.4"E Weather History for the Previous 24 Hours

Scroll right to see more
 ConditionsComfort  
Time TempWeatherWind HumidityBarometerVisibility
8:50 am
Sat, May 25
77 °FSunny.10 mph47%29.92 "Hg10 mi
8:20 am75 °FSunny.9 mph50%29.92 "Hg10 mi
7:50 am75 °FSunny.7 mph50%29.92 "Hg10 mi
7:20 am73 °FSunny.6 mph53%29.92 "Hg10 mi
6:50 am73 °FSunny.6 mph53%29.92 "Hg10 mi
6:20 am72 °FSunny.6 mph57%29.92 "Hg10 mi
5:50 am70 °FPassing clouds.9 mph60%29.92 "HgN/A
5:20 am68 °FPassing clouds.9 mph64%29.92 "HgN/A
2:50 am68 °FClear.3 mph69%29.92 "Hg10 mi
11:50 pm
Fri, May 24
72 °FClear.3 mph57%29.92 "Hg10 mi
10:50 pm73 °FPassing clouds.9 mph50%29.92 "HgN/A
9:50 pm73 °FPassing clouds.8 mph53%29.92 "HgN/A
8:50 pm77 °FPassing clouds.7 mph47%29.89 "HgN/A
8:20 pm77 °FPassing clouds.7 mph47%29.92 "HgN/A
7:50 pm79 °FPassing clouds.6 mph42%29.92 "HgN/A
7:20 pm79 °FSunny.12 mph42%29.89 "Hg10 mi
6:50 pm79 °FPassing clouds.14 mph42%29.89 "HgN/A
6:20 pm79 °FSunny.9 mph42%29.89 "Hg10 mi
5:50 pm81 °FPassing clouds.13 mph39%29.89 "HgN/A
5:20 pm81 °FSunny.16 mph39%29.89 "Hg10 mi
4:20 pm81 °FSunny.17 mph39%29.92 "Hg10 mi
3:20 pm81 °FPassing clouds.12 mph39%29.92 "HgN/A
2:50 pm81 °FPassing clouds.14 mph39%29.92 "HgN/A
1:50 pm79 °FPassing clouds.10 mph42%29.92 "HgN/A
1:20 pm79 °FPassing clouds.8 mph42%29.92 "HgN/A
12:50 pm79 °FPassing clouds.10 mph42%29.92 "HgN/A
12:20 pm77 °FPassing clouds.8 mph44%29.92 "HgN/A
11:50 am77 °FPassing clouds.13 mph42%29.92 "HgN/A
11:20 am75 °FPassing clouds.12 mph44%29.95 "HgN/A
10:50 am75 °FPassing clouds.10 mph47%29.95 "HgN/A
Weather by CustomWeather, © 2024

See weather overview